FYT3173 LIRF-LFML

Flight info

Callsign FYT3173
Flight time 1h 5m
Altitude 32000
Route PODOX T246 MIRSA/N0461F310 A3 RUBIT G7 CUERS/N0384F170 G7 LANKO
Aircraft A321/M-SDE1FGHIJ1RWXY/S

Departure

Time 2026-05-08 07:32
Airport Rome–Fiumicino Leonardo da Vinci International Airport (LIRF)

Arrival

Time 2026-05-08 08:37
Airport Marseille Provence Airport (LFML)
Time Latitude Longitude Altitude Speed Heading
2026-05-08 06:48 41.80090 12.26152 16 ft 0 kts 205°
2026-05-08 07:23 41.80100 12.26159 16 ft 2 kts 205°
2026-05-08 07:23 41.80114 12.26167 16 ft 2 kts 205°
2026-05-08 07:24 41.80129 12.26176 16 ft 2 kts 202°
2026-05-08 07:24 41.80141 12.26183 16 ft 1 kts 205°
2026-05-08 07:24 41.80148 12.26188 16 ft 1 kts 223°
2026-05-08 07:24 41.80152 12.26195 16 ft 0 kts 252°
2026-05-08 07:25 41.80154 12.26203 16 ft 0 kts 277°
2026-05-08 07:25 41.80152 12.26211 16 ft 0 kts 294°
2026-05-08 07:27 41.80152 12.26210 16 ft 0 kts 294°
2026-05-08 07:27 41.80155 12.26199 16 ft 2 kts 287°
2026-05-08 07:27 41.80157 12.26188 16 ft 0 kts 285°
2026-05-08 07:28 41.80158 12.26183 16 ft 2 kts 285°
2026-05-08 07:28 41.80167 12.26145 16 ft 6 kts 288°
2026-05-08 07:28 41.80185 12.26087 16 ft 7 kts 297°
2026-05-08 07:28 41.80241 12.26056 16 ft 11 kts 16°
2026-05-08 07:29 41.80330 12.26107 16 ft 16 kts 25°
2026-05-08 07:29 41.80442 12.26171 16 ft 17 kts 17°
2026-05-08 07:29 41.80527 12.26261 15 ft 16 kts 60°
2026-05-08 07:29 41.80571 12.26405 15 ft 16 kts 69°
2026-05-08 07:30 41.80612 12.26551 15 ft 16 kts 69°
2026-05-08 07:30 41.80653 12.26698 14 ft 17 kts 69°
2026-05-08 07:30 41.80695 12.26849 14 ft 17 kts 70°
2026-05-08 07:30 41.80737 12.27001 13 ft 17 kts 60°
2026-05-08 07:31 41.80843 12.27020 13 ft 17 kts 339°
2026-05-08 07:31 41.80954 12.26919 13 ft 18 kts 272°
2026-05-08 07:31 41.80893 12.26813 13 ft 1 kts 281°
2026-05-08 07:31 41.80893 12.26698 14 ft 39 kts 256°
2026-05-08 07:32 41.80717 12.26050 16 ft 107 kts 249°
2026-05-08 07:32 41.80390 12.24874 15 ft 164 kts 250°
2026-05-08 07:32 41.79959 12.23249 327 ft 186 kts 250°
2026-05-08 07:32 41.79553 12.21646 1023 ft 185 kts 253°
2026-05-08 07:33 41.79281 12.19979 1711 ft 186 kts 261°
2026-05-08 07:33 41.79162 12.18265 2333 ft 186 kts 266°
2026-05-08 07:33 41.79134 12.16540 2896 ft 188 kts 269°
2026-05-08 07:33 41.79125 12.14775 3403 ft 194 kts 268°
2026-05-08 07:34 41.79100 12.12899 3744 ft 209 kts 268°
2026-05-08 07:34 41.79057 12.10869 4075 ft 226 kts 268°
2026-05-08 07:34 41.79019 12.08701 4332 ft 247 kts 270°
2026-05-08 07:34 41.79017 12.06317 4784 ft 260 kts 271°
2026-05-08 07:35 41.79020 12.03906 5474 ft 263 kts 271°
2026-05-08 07:35 41.79021 12.01472 6185 ft 264 kts 272°
2026-05-08 07:35 41.79019 11.99007 6873 ft 267 kts 272°
2026-05-08 07:35 41.79018 11.96536 7517 ft 270 kts 272°
2026-05-08 07:36 41.79013 11.94001 8140 ft 274 kts 272°
2026-05-08 07:36 41.79007 11.91467 8755 ft 278 kts 272°
2026-05-08 07:36 41.79000 11.88869 9360 ft 282 kts 271°
2026-05-08 07:36 41.78991 11.86239 9966 ft 285 kts 271°
2026-05-08 07:37 41.78983 11.83542 10432 ft 295 kts 271°
2026-05-08 07:37 41.78974 11.80755 10717 ft 310 kts 271°
2026-05-08 07:37 41.78963 11.77785 11011 ft 326 kts 271°
2026-05-08 07:37 41.78950 11.74679 11290 ft 341 kts 270°
2026-05-08 07:38 41.78935 11.71482 11649 ft 353 kts 270°
2026-05-08 07:38 41.78918 11.68178 12207 ft 357 kts 270°
2026-05-08 07:38 41.78901 11.64831 12830 ft 359 kts 270°
2026-05-08 07:38 41.78881 11.61490 13396 ft 363 kts 269°
2026-05-08 07:39 41.78860 11.58131 13935 ft 367 kts 269°
2026-05-08 07:39 41.78924 11.54734 14517 ft 369 kts 273°
2026-05-08 07:39 41.79153 11.51280 15108 ft 371 kts 275°
2026-05-08 07:39 41.79429 11.47869 15682 ft 372 kts 275°
2026-05-08 07:40 41.79712 11.44451 16240 ft 374 kts 275°
2026-05-08 07:40 41.79996 11.40979 16799 ft 375 kts 275°
2026-05-08 07:40 41.80302 11.37545 17332 ft 377 kts 279°
2026-05-08 07:40 41.81081 11.34149 17841 ft 382 kts 292°
2026-05-08 07:41 41.82449 11.31082 18330 ft 386 kts 305°
2026-05-08 07:41 41.84137 11.28312 18835 ft 388 kts 308°
2026-05-08 07:41 41.85894 11.25539 19308 ft 391 kts 308°
2026-05-08 07:41 41.87648 11.22774 19773 ft 393 kts 308°
2026-05-08 07:42 41.89416 11.19966 20239 ft 395 kts 308°
2026-05-08 07:42 41.91171 11.17164 20696 ft 397 kts 308°
2026-05-08 07:42 41.92947 11.14318 21156 ft 398 kts 308°
2026-05-08 07:42 41.94724 11.11460 21602 ft 400 kts 308°
2026-05-08 07:43 41.96510 11.08582 22043 ft 402 kts 308°
2026-05-08 07:43 41.98284 11.05717 22479 ft 403 kts 308°
2026-05-08 07:43 42.00074 11.02822 22904 ft 405 kts 308°
2026-05-08 07:43 42.01860 10.99932 23318 ft 406 kts 308°
2026-05-08 07:44 42.03669 10.97001 23745 ft 408 kts 308°
2026-05-08 07:44 42.05495 10.94042 24138 ft 411 kts 308°
2026-05-08 07:44 42.07312 10.91093 24483 ft 414 kts 308°
2026-05-08 07:44 42.09143 10.88122 24845 ft 416 kts 308°
2026-05-08 07:45 42.10987 10.85120 25199 ft 419 kts 308°
2026-05-08 07:45 42.12851 10.82084 25531 ft 422 kts 307°
2026-05-08 07:45 42.14732 10.79017 25869 ft 425 kts 307°
2026-05-08 07:45 42.16604 10.75960 26204 ft 427 kts 307°
2026-05-08 07:46 42.18486 10.72883 26541 ft 429 kts 307°
2026-05-08 07:46 42.20381 10.69783 26873 ft 431 kts 307°
2026-05-08 07:46 42.22287 10.66661 27200 ft 433 kts 307°
2026-05-08 07:46 42.24215 10.63499 27505 ft 435 kts 307°
2026-05-08 07:47 42.26120 10.60373 27791 ft 438 kts 307°
2026-05-08 07:47 42.28075 10.57228 28099 ft 440 kts 309°
2026-05-08 07:47 42.30124 10.54128 28408 ft 442 kts 309°
2026-05-08 07:47 42.32184 10.51051 28791 ft 442 kts 309°
2026-05-08 07:48 42.34189 10.48059 29200 ft 441 kts 309°
2026-05-08 07:48 42.36249 10.44981 29598 ft 440 kts 309°
2026-05-08 07:48 42.38295 10.41915 29966 ft 439 kts 309°
2026-05-08 07:48 42.40345 10.38837 30315 ft 440 kts 309°
2026-05-08 07:49 42.42382 10.35772 30615 ft 440 kts 309°
2026-05-08 07:49 42.44427 10.32690 30932 ft 440 kts 308°
2026-05-08 07:49 42.46461 10.29622 31276 ft 440 kts 308°
2026-05-08 07:49 42.48515 10.26524 31591 ft 440 kts 308°
2026-05-08 07:50 42.50532 10.23473 31886 ft 440 kts 308°
2026-05-08 07:50 42.54618 10.17284 31929 ft 440 kts 308°
2026-05-08 07:51 42.58693 10.11101 31938 ft 439 kts 307°
2026-05-08 07:51 42.62739 10.04948 31936 ft 439 kts 307°
2026-05-08 07:52 42.66788 9.98774 31935 ft 440 kts 307°
2026-05-08 07:52 42.70842 9.92580 31931 ft 439 kts 307°
2026-05-08 07:53 42.74905 9.86359 31940 ft 439 kts 307°
2026-05-08 07:53 42.78697 9.79943 31935 ft 435 kts 300°
2026-05-08 07:54 42.81629 9.72811 31942 ft 430 kts 290°
2026-05-08 07:54 42.83600 9.65170 31948 ft 426 kts 281°
2026-05-08 07:55 42.84788 9.57305 31947 ft 424 kts 277°
2026-05-08 07:55 42.85870 9.49402 31940 ft 424 kts 277°
2026-05-08 07:56 42.86938 9.41571 31949 ft 423 kts 277°
2026-05-08 07:56 42.88013 9.33682 31964 ft 422 kts 277°
2026-05-08 07:57 42.89078 9.25826 31956 ft 423 kts 277°
2026-05-08 07:57 42.90151 9.17929 31962 ft 424 kts 277°
2026-05-08 07:58 42.91217 9.10064 31966 ft 423 kts 277°
2026-05-08 07:58 42.92278 9.02207 31975 ft 423 kts 277°
2026-05-08 07:59 42.93331 8.94334 31976 ft 422 kts 277°
2026-05-08 07:59 42.94366 8.86512 31983 ft 421 kts 277°
2026-05-08 08:00 42.95385 8.78646 31982 ft 422 kts 277°
2026-05-08 08:00 42.96512 8.70792 31982 ft 421 kts 278°
2026-05-08 08:01 42.97648 8.62988 31982 ft 421 kts 278°
2026-05-08 08:01 42.98769 8.55181 31984 ft 421 kts 278°
2026-05-08 08:02 42.99883 8.47355 31994 ft 420 kts 278°
2026-05-08 08:02 43.00973 8.39571 31979 ft 419 kts 277°
2026-05-08 08:03 43.01680 8.31728 31984 ft 415 kts 272°
2026-05-08 08:03 43.02479 8.23937 31980 ft 417 kts 276°
2026-05-08 08:04 43.03453 8.16162 31980 ft 416 kts 277°
2026-05-08 08:04 43.04432 8.08355 31981 ft 416 kts 277°
2026-05-08 08:05 43.05395 8.00594 31980 ft 415 kts 277°
2026-05-08 08:05 43.06354 7.92856 31973 ft 414 kts 277°
2026-05-08 08:06 43.07301 7.85149 31972 ft 414 kts 277°
2026-05-08 08:06 43.08247 7.77420 31964 ft 413 kts 277°
2026-05-08 08:07 43.09192 7.69723 31961 ft 412 kts 277°
2026-05-08 08:07 43.10134 7.61985 31634 ft 410 kts 277°
2026-05-08 08:07 43.10598 7.58162 31400 ft 408 kts 277°
2026-05-08 08:08 43.11058 7.54368 31158 ft 408 kts 277°
2026-05-08 08:08 43.11518 7.50541 30931 ft 407 kts 277°
2026-05-08 08:08 43.11977 7.46724 30689 ft 408 kts 277°
2026-05-08 08:08 43.12432 7.42902 30426 ft 409 kts 277°
2026-05-08 08:09 43.12884 7.39080 30142 ft 409 kts 277°
2026-05-08 08:09 43.13339 7.35230 29806 ft 410 kts 277°
2026-05-08 08:09 43.13793 7.31390 29340 ft 411 kts 276°
2026-05-08 08:09 43.14247 7.27532 28731 ft 413 kts 276°
2026-05-08 08:10 43.14699 7.23686 28098 ft 412 kts 277°
2026-05-08 08:10 43.15148 7.19852 27667 ft 409 kts 277°
2026-05-08 08:10 43.15593 7.16038 27218 ft 407 kts 277°
2026-05-08 08:10 43.16039 7.12200 26748 ft 404 kts 277°
2026-05-08 08:11 43.16476 7.08433 26263 ft 400 kts 277°
2026-05-08 08:11 43.16909 7.04682 25773 ft 397 kts 277°
2026-05-08 08:11 43.17339 7.00978 25285 ft 394 kts 277°
2026-05-08 08:11 43.17758 6.97347 24798 ft 390 kts 277°
2026-05-08 08:12 43.18178 6.93679 24318 ft 387 kts 277°
2026-05-08 08:12 43.18590 6.90079 23859 ft 383 kts 277°
2026-05-08 08:12 43.18995 6.86531 23400 ft 380 kts 277°
2026-05-08 08:12 43.19405 6.82914 22929 ft 377 kts 277°
2026-05-08 08:13 43.19806 6.79364 22472 ft 374 kts 277°
2026-05-08 08:13 43.20202 6.75871 22013 ft 371 kts 277°
2026-05-08 08:13 43.20596 6.72347 21547 ft 368 kts 277°
2026-05-08 08:13 43.20978 6.68931 21103 ft 366 kts 277°
2026-05-08 08:14 43.21364 6.65491 20643 ft 363 kts 277°
2026-05-08 08:14 43.21722 6.62078 20195 ft 361 kts 275°
2026-05-08 08:14 43.21946 6.58712 19743 ft 358 kts 272°
2026-05-08 08:14 43.22034 6.55298 19292 ft 356 kts 270°
2026-05-08 08:15 43.22083 6.51950 18854 ft 354 kts 270°
2026-05-08 08:15 43.22127 6.48567 18397 ft 352 kts 270°
2026-05-08 08:15 43.22172 6.45249 17955 ft 351 kts 270°
2026-05-08 08:15 43.22219 6.41887 17511 ft 349 kts 270°
2026-05-08 08:16 43.22266 6.38596 17080 ft 348 kts 271°
2026-05-08 08:16 43.22315 6.35276 16623 ft 348 kts 271°
2026-05-08 08:16 43.22365 6.31916 16154 ft 347 kts 270°
2026-05-08 08:16 43.22413 6.28602 15708 ft 347 kts 270°
2026-05-08 08:17 43.22459 6.25304 15240 ft 346 kts 270°
2026-05-08 08:17 43.22504 6.21987 14787 ft 346 kts 270°
2026-05-08 08:17 43.22548 6.18711 14340 ft 345 kts 270°
2026-05-08 08:17 43.22590 6.15439 13888 ft 344 kts 271°
2026-05-08 08:18 43.22629 6.12169 13440 ft 344 kts 271°
2026-05-08 08:18 43.22663 6.08906 12988 ft 342 kts 271°
2026-05-08 08:18 43.22692 6.05646 12546 ft 341 kts 271°
2026-05-08 08:18 43.22746 6.02457 12114 ft 340 kts 273°
2026-05-08 08:19 43.22953 5.99203 11837 ft 342 kts 277°
2026-05-08 08:19 43.23266 5.95953 11856 ft 345 kts 278°
2026-05-08 08:19 43.23591 5.92678 11881 ft 346 kts 278°
2026-05-08 08:19 43.23912 5.89438 11904 ft 346 kts 278°
2026-05-08 08:20 43.24235 5.86170 11939 ft 346 kts 277°
2026-05-08 08:20 43.24553 5.82922 11967 ft 346 kts 277°
2026-05-08 08:20 43.24874 5.79632 11990 ft 347 kts 277°
2026-05-08 08:20 43.25189 5.76379 11998 ft 347 kts 277°
2026-05-08 08:21 43.25510 5.73057 11995 ft 347 kts 277°
2026-05-08 08:21 43.25824 5.69801 12010 ft 348 kts 277°
2026-05-08 08:21 43.26141 5.66482 12005 ft 348 kts 277°
2026-05-08 08:21 43.26452 5.63237 12008 ft 347 kts 277°
2026-05-08 08:22 43.26764 5.59958 12007 ft 346 kts 277°
2026-05-08 08:22 43.27111 5.56718 12006 ft 345 kts 279°
2026-05-08 08:22 43.27495 5.53467 12002 ft 345 kts 279°
2026-05-08 08:22 43.27880 5.50224 12008 ft 345 kts 279°
2026-05-08 08:23 43.28263 5.46987 12003 ft 345 kts 279°
2026-05-08 08:23 43.28642 5.43743 11997 ft 345 kts 279°
2026-05-08 08:23 43.29021 5.40491 11996 ft 345 kts 279°
2026-05-08 08:23 43.29400 5.37214 11999 ft 345 kts 279°
2026-05-08 08:24 43.29775 5.33963 11994 ft 346 kts 278°
2026-05-08 08:24 43.30152 5.30678 11643 ft 348 kts 278°
2026-05-08 08:24 43.30529 5.27375 11112 ft 347 kts 278°
2026-05-08 08:24 43.30900 5.24115 10636 ft 344 kts 278°
2026-05-08 08:25 43.31260 5.20935 10435 ft 332 kts 278°
2026-05-08 08:25 43.31603 5.17908 10286 ft 309 kts 278°
2026-05-08 08:25 43.31921 5.15094 10154 ft 291 kts 278°
2026-05-08 08:25 43.32226 5.12383 10025 ft 287 kts 278°
2026-05-08 08:26 43.32535 5.09644 9670 ft 288 kts 278°
2026-05-08 08:26 43.32838 5.06959 9298 ft 287 kts 279°
2026-05-08 08:26 43.33466 5.04380 8875 ft 287 kts 304°
2026-05-08 08:26 43.34918 5.02536 8497 ft 283 kts 333°
2026-05-08 08:27 43.36787 5.01767 8139 ft 279 kts 352°
2026-05-08 08:27 43.38678 5.01114 7713 ft 281 kts 337°
2026-05-08 08:27 43.40412 4.99883 7257 ft 284 kts 332°
2026-05-08 08:27 43.42152 4.98589 6768 ft 287 kts 334°
2026-05-08 08:28 43.43960 4.97364 6266 ft 290 kts 336°
2026-05-08 08:28 43.45774 4.96228 5863 ft 282 kts 337°
2026-05-08 08:28 43.47543 4.95167 5460 ft 271 kts 338°
2026-05-08 08:28 43.49252 4.94078 5106 ft 269 kts 331°
2026-05-08 08:29 43.50760 4.92619 4982 ft 261 kts 320°
2026-05-08 08:29 43.52082 4.90927 4981 ft 257 kts 316°
2026-05-08 08:29 43.53338 4.89227 4980 ft 256 kts 316°
2026-05-08 08:29 43.54613 4.87495 4981 ft 256 kts 316°
2026-05-08 08:30 43.55907 4.85760 4976 ft 254 kts 319°
2026-05-08 08:30 43.57407 4.84579 4938 ft 250 kts 351°
2026-05-08 08:30 43.60313 4.86448 4979 ft 243 kts 62°
2026-05-08 08:31 43.61029 4.88460 4977 ft 228 kts 66°
2026-05-08 08:31 43.61694 4.90384 4974 ft 213 kts 65°
2026-05-08 08:31 43.62307 4.92109 4845 ft 195 kts 70°
2026-05-08 08:31 43.62328 4.93913 4487 ft 187 kts 106°
2026-05-08 08:32 43.61725 4.95476 4187 ft 185 kts 124°
2026-05-08 08:32 43.60895 4.96873 3991 ft 186 kts 130°
2026-05-08 08:32 43.60025 4.98208 3977 ft 186 kts 131°
2026-05-08 08:32 43.59135 4.99522 3951 ft 187 kts 132°
2026-05-08 08:33 43.58231 5.00829 3756 ft 187 kts 133°
2026-05-08 08:33 43.57334 5.02109 3511 ft 186 kts 133°
2026-05-08 08:33 43.56425 5.03398 3262 ft 186 kts 133°
2026-05-08 08:33 43.55530 5.04664 3018 ft 186 kts 133°
2026-05-08 08:34 43.54610 5.05966 2768 ft 186 kts 133°
2026-05-08 08:34 43.53701 5.07253 2521 ft 186 kts 133°
2026-05-08 08:34 43.52807 5.08520 2279 ft 186 kts 133°
2026-05-08 08:34 43.51905 5.09799 2027 ft 180 kts 133°
2026-05-08 08:35 43.51076 5.10973 1776 ft 166 kts 133°
2026-05-08 08:35 43.50276 5.12110 1569 ft 164 kts 133°
2026-05-08 08:35 43.49477 5.13244 1366 ft 164 kts 133°
2026-05-08 08:35 43.48684 5.14372 1160 ft 164 kts 133°
2026-05-08 08:36 43.47900 5.15487 934 ft 156 kts 133°
2026-05-08 08:36 43.47172 5.16523 712 ft 146 kts 134°
2026-05-08 08:36 43.46460 5.17535 535 ft 146 kts 134°
2026-05-08 08:36 43.45752 5.18542 344 ft 145 kts 134°
2026-05-08 08:37 43.45042 5.19552 150 ft 145 kts 134°
2026-05-08 08:37 43.44339 5.20549 20 ft 139 kts 133°
2026-05-08 08:37 43.43765 5.21375 34 ft 95 kts 133°
2026-05-08 08:37 43.43427 5.21855 48 ft 45 kts 134°
2026-05-08 08:38 43.43252 5.22105 55 ft 31 kts 132°
2026-05-08 08:38 43.43113 5.22311 61 ft 27 kts 133°
2026-05-08 08:38 43.43132 5.22486 63 ft 20 kts 17°
2026-05-08 08:38 43.43257 5.22433 60 ft 20 kts 322°
2026-05-08 08:39 43.43369 5.22306 56 ft 21 kts 330°
2026-05-08 08:39 43.43509 5.22210 52 ft 22 kts 332°
2026-05-08 08:39 43.43645 5.22121 48 ft 14 kts 357°
2026-05-08 08:39 43.43714 5.22169 48 ft 11 kts 44°
2026-05-08 08:40 43.43785 5.22220 47 ft 12 kts 353°
2026-05-08 08:40 43.43854 5.22204 45 ft 3 kts
2026-05-08 08:40 43.43875 5.22227 45 ft 4 kts 58°
2026-05-08 08:40 43.43897 5.22263 45 ft 5 kts 38°
2026-05-08 08:41 43.43922 5.22285 44 ft 0 kts 32°